LEMD

Madrid-Barajas Airport

Airport
ICAO code
LEMD
IATA Code
MAD
Summary
ICAO Region
EUR
ICAO Territory
Location

Barajas, Madrid, Comunidad de Madrid

Serving
Madrid
Elevation
2000 ft
Coordinates
40° 29' 38" N , 3° 34' 2" W
KCC
Airport LOS
Parallel Runway Operation
Airport RE
Engineered Materials Arresting System
Metar
Observation
LEMD 041500Z VRB01KT 9999 -DZ OVC045 07/05 Q1010 NOSIG
Station
Madrid / Barajas
Date/Time
2022-12-04 15:00:00
Wind speed
01 kts
Lowest cloud amount
overcast
Temperature
7°C
Dew point
5°C
Humidity
87%
QNH
1010 hPa
Weather condition
light drizzle

Spain's principal international airport which serves the whole of central Spain.

Climatology

"Continental" Mediterranean climate - a variation fo the Mediterranean Climate with characteristics of a continental climate due to altitude and limited influence of the sea (Köppen climate classification Csa) - cool winters due to altitude, including sporadic snowfalls and minimum temperatures often below freezing. Summer tends to be hot and dry with significant diurnal temperature range.

Runways

Designator Length Width Surface Rops
14L/32R 3500 60 ASP Yes/Yes
18L/36R 3500 60 ASP Yes/Yes
14R/32L 4100 60 ASP Yes/Yes
18R/36L 4350 60 ASP Yes/Yes

SKYbrary Partners:

Safety knowledge contributed by: